Tracking 19847 objects as of 16-Sep-2019
HD Live streaming from Space Station
objects crossing your sky now

SL-8 DEB

Track SL-8 DEB now!
10-day predictions


NORAD ID: 29282
Int'l Code: 1981-120L
Perigee: 1,654.5 km
Apogee: 1,686.9 km
Inclination: 83.0 °
Period: 119.6 minutes
Semi major axis: 8041 km
RCS: 0.0115 m2 (small)
Launch date: December 17, 1981
Source: Commonwealth of Independent States (former USSR) (CIS)
Launch site: PLESETSK MISSILE AND SPACE COMPLEX (PKMTR)

Note: This is SATELLITE DEBRIS
aabbcc
Your satellite tracking list
Your tracking list is empty




NASA's NSSDC Master Catalog

Two Line Element Set (TLE):
1 29282U 81120L   19257.07238637 -.00000029 +00000-0 -44894-3 0  9990
2 29282 082.9650 008.9858 0020186 093.2773 027.0020 12.03875126312104
Source of the keplerian elements: AFSPC